Regional Weather Roundup
Issued by NWS Goodland, KS

Home | Current Version | Previous Version | Graphics & Text | Print | Product List | Glossary On
Versions: 1 2 3 4 5 6 7 8 9 10 11 12 13 14 15 16 17 18 19 20 21 22 23 24 25 26 27 28 29 30 31 32 33 34 35 36 37 38 39 40 41 42 43 44 45 46 47 48 49 50
000
ASUS43 KGLD 091459
RWRGLD

GOODLAND FORECAST AREA HOURLY WEATHER ROUNDUP
NATIONAL WEATHER SERVICE GOODLAND KS
800 AM MST TUE FEB 09 2016

...OFFICIAL OBSERVATIONS...

CITY           SKY/WX    TMP DP  RH WIND       PRES   REMARKS
GOODLAND KS    HAZE      31  24  75 N10       30.26R VSB 1
HILL CITY KS   CLOUDY    31  20  63 NW5       30.28R
IMPERIAL NEB   SUNNY     29  22  75 NW9       30.24F
MCCOOK NEB     CLOUDY    28  19  69 NW10      30.26R WCI  19
AKRON CO       CLOUDY    30  21  69 W16       30.28R WCI  19
BURLINGTON CO  SUNNY     33  21  61 NW15      30.26S
LIMON CO       CLOUDY    23  15  71 N8        30.34R
$$

...UNOFFICIAL OBSERVATIONS...

CITY           SKY/WX    TMP DP  RH WIND       PRES   REMARKS
COLBY KS       SUNNY     25  25 100 W6        30.26F
GOVE KS          N/A     25  32 100 MISG        N/A
LENORA KS        N/A     29  32 100 MISG        N/A
NORTON KS      CLOUDY    30  19  64 NW7       30.25S
SHARON SPRINGS   N/A     37  28  70 NW20        N/A
KIT CARSON CO    N/A     35  25  67 MISG        N/A
YUMA CO          N/A     34  26  71 NW17        N/A
$$



USA.gov is the U.S. government's official web portal to all federal, state and local government web resources and services.